This is the latest recevied weather packets stored in our database for station/object KD2ZLA. If no packets are shown the sender has not sent any weather packets the latest 10 day(s).
| Time | Temp. | Humidity | Pressure | Rain* | Wind** | Luminosity | Snow |
|---|---|---|---|---|---|---|---|
| 1777156766 | 12.78° C | 39% | 1014.6 hPa | 0 mm | - | 60 W/m² | - |
| 1777156462 | 13.33° C | 39% | 1014.6 hPa | 0 mm | - | 68 W/m² | - |
| 1777156159 | 13.33° C | 38% | 1014.6 hPa | 0 mm | - | 71 W/m² | - |
| 1777155855 | 13.33° C | 39% | 1014.7 hPa | 0 mm | - | 76 W/m² | - |
| 1777155550 | 13.33° C | 38% | 1014.6 hPa | 0 mm | - | 88 W/m² | - |
| 1777155248 | 13.33° C | 36% | 1014.4 hPa | 0 mm | - | 99 W/m² | - |
| 1777154945 | 13.33° C | 36% | 1014.7 hPa | 0 mm | - | 111 W/m² | - |
| 1777154641 | 13.33° C | 36% | 1014.5 hPa | 0 mm | - | 117 W/m² | - |
| 1777154338 | 13.33° C | 36% | 1014.4 hPa | 0 mm | - | 127 W/m² | - |
| 1777154033 | 13.33° C | 38% | 1014.4 hPa | 0 mm | - | 136 W/m² | - |
| 1777153729 | 13.33° C | 37% | 1014.4 hPa | 0 mm | - | 142 W/m² | - |
| 1777153426 | 13.89° C | 37% | 1014.1 hPa | 0 mm | - | 148 W/m² | - |
| 1777153122 | 13.89° C | 37% | 1014.4 hPa | 0 mm | - | 166 W/m² | - |
| 1777152818 | 13.89° C | 36% | 1014.2 hPa | 0 mm | - | 192 W/m² | - |
| 1777152515 | 13.89° C | 39% | 1014.3 hPa | 0 mm | - | 221 W/m² | - |
| 1777152212 | 13.89° C | 37% | 1014.2 hPa | 0 mm | - | 232 W/m² | - |
| 1777151907 | 13.89° C | 36% | 1014.3 hPa | 0 mm | - | 246 W/m² | - |
| 1777151603 | 13.89° C | 38% | 1014.2 hPa | 0 mm | - | 246 W/m² | - |
| 1777151301 | 13.89° C | 36% | 1014 hPa | 0 mm | - | 221 W/m² | - |
| 1777151001 | 13.89° C | 39% | 1013.9 hPa | 0 mm | - | 219 W/m² | - |
| 1777150695 | 13.89° C | 38% | 1014 hPa | 0 mm | - | 206 W/m² | - |
| 1777150391 | 13.89° C | 37% | 1013.7 hPa | 0 mm | - | 208 W/m² | - |
| 1777150089 | 13.89° C | 39% | 1014 hPa | 0 mm | - | 240 W/m² | - |
| 1777149783 | 13.89° C | 35% | 1013.9 hPa | 0 mm | - | 259 W/m² | - |
| 1777149481 | 13.89° C | 39% | 1013.9 hPa | 0 mm | - | 256 W/m² | - |
* Rain latest hour (hover to see other rain measurements)
** Current wind speed in m/s (hover to see current wind gust speed)